[[{"header":{"parameterUnit":"m.s-1","parameterCategory":1,"la1":30.2991,"la2":30.254,"lo1":-89.0895,"lo2":-89.0444,"dy":0.0017,"dx":0.0017,"nx":28,"ny":28,"refTime":"2024-04-26T09:00:00:Z","depth":0,"parameterNumber":2,"parameterNumberName":"U-component_of_WINDS"},"data":[0,0,0,0,0,0,0,0,0,0,0,0,0,0,0,0,0,0,0,0,0,0,0,0,0,0,0,0,0,0,0,0,0,0,0,0,0,0,0,0,0,0,0,0,0,0,0,0,0,0,0,0,0,0,0,0,0,0,-2.6173,-2.6175,0,-2.6303,-2.6304,-2.6306,-2.6316,-2.6314,-2.6313,-2.6312,-2.6445,-2.645,-2.6455,0,0,0,0,0,0,0,0,0,0,0,0,0,-2.5936,-2.5941,-2.6173,-2.6175,-2.6177,-2.6303,-2.6305,-2.6306,-2.6316,-2.6314,-2.6313,-2.6311,-2.6443,-2.6449,-2.6455,0,0,0,0,0,0,0,0,0,0,0,0,0,-2.605,-2.5942,-2.6173,-2.6197,-2.62,-2.6302,-2.6305,-2.6307,-2.6316,-2.6314,-2.6312,-2.631,-2.6442,-2.6449,-2.6456,-2.6544,0,0,-2.6478,-2.6481,0,0,0,0,0,0,0,0,-2.6043,-2.6059,-2.6192,-2.6195,-2.6199,-2.6291,-2.627,-2.6386,-2.6317,-2.6272,-2.6312,-2.6309,-2.6396,-2.6407,-2.6436,-2.655,-2.6556,-2.6479,-2.6483,-2.6487,-2.6489,0,0,0,0,0,0,0,-2.6036,-2.6053,-2.6225,-2.6193,-2.6198,-2.6201,-2.6215,-2.6292,-2.6344,-2.6276,-2.6277,-2.6292,-2.6397,-2.6428,-2.6439,-2.6558,-2.6479,-2.6485,-2.649,-2.6493,-2.6752,-2.6755,0,0,0,0,0,0,-2.6023,-2.6046,-2.6221,-2.6229,-2.6114,-2.6207,-2.6223,-2.6264,-2.6344,-2.6354,-2.6294,-2.6292,-2.6417,-2.643,-2.6444,-2.6552,-2.6486,-2.6493,-2.6498,-2.675,-2.6753,-2.6756,0,0,0,0,0,0,-2.6018,-2.6038,-2.6215,-2.6138,-2.6161,-2.6214,-2.626,-2.6267,-2.6299,-2.6357,-2.6366,-2.6316,-2.6416,-2.6433,-2.6519,-2.6557,-2.6497,-2.6503,-2.6747,-2.6751,-2.6754,-2.677,0,0,0,0,0,0,-2.6011,-2.6037,-2.607,-2.6139,-2.6165,-2.6288,-2.6262,-2.6271,-2.6311,-2.631,-2.638,-2.639,-2.6416,-2.6508,-2.6526,-2.6566,-2.6509,-2.6744,-2.6749,-2.6753,-2.6766,-2.6774,-2.678,0,0,0,0,0,-2.6003,-2.6069,-2.6071,-2.6092,-2.6207,-2.629,-2.6305,-2.6333,-2.6314,-2.6348,-2.6386,-2.6388,-2.655,-2.6517,-2.6537,-2.658,-2.6741,-2.6747,-2.6753,-2.6763,-2.6772,-2.678,0,0,0,0,0,0,-2.6003,-2.6078,-2.6082,-2.6173,-2.6225,-2.6292,-2.6336,-2.6342,-2.6401,-2.6397,-2.643,-2.6446,-2.6531,-2.6564,-2.6526,-2.667,-2.6644,-2.6654,-2.6645,-2.6654,-2.6661,-2.665,-2.6515,0,0,0,0,0,-2.6014,-2.6075,-2.6137,-2.6211,-2.6237,-2.6282,-2.6319,-2.6336,-2.6392,-2.6414,-2.6458,-2.6512,-2.6576,-2.6617,-2.6678,-2.6772,-2.6787,-2.6811,-2.6818,-2.6823,-2.6831,-2.6884,-2.6895,-2.6774,-2.6774,-2.6774,0,0,-2.6037,-2.6085,-2.6122,-2.6213,-2.6255,-2.6318,-2.6301,-2.6367,-2.6414,-2.6424,-2.6508,-2.6542,-2.6605,-2.6695,-2.6737,-2.6726,-2.6869,-2.6831,-2.6834,-2.684,-2.6891,-2.6902,-2.6913,-2.6778,-2.6777,-2.6777,0,0,-2.611,-2.6153,-2.6219,-2.6263,-2.6328,-2.6357,-2.6373,-2.644,-2.6463,-2.6547,-2.6557,-2.6614,-2.6722,-2.6766,-2.6803,-2.6895,-2.6899,-2.6915,-2.6951,-2.7002,-2.7011,-2.702,-2.7053,-2.7064,-2.6923,-2.6923,-2.6923,0,-2.613,-2.6224,-2.6253,-2.632,-2.636,-2.6373,-2.6441,-2.6481,-2.6563,-2.6591,-2.6577,-2.6714,-2.6757,-2.6858,-2.6881,-2.691,-2.693,-2.6906,-2.7007,-2.7016,-2.7025,-2.7057,-2.7069,-2.6924,-2.6924,-2.6924,-2.6924,0,-2.6246,-2.6311,-2.6357,-2.6436,-2.6481,-2.6548,-2.6588,-2.6631,-2.6645,-2.6676,-2.6763,-2.6815,-2.6888,-2.6913,-2.6927,-2.7017,-2.7008,-2.7001,-2.6975,-2.7037,-2.7068,-2.708,-2.6926,-2.6926,-2.6925,-2.6925,0,0,-2.6322,-2.6417,-2.6433,-2.6469,-2.6542,-2.6594,-2.6662,-2.6733,-2.6769,-2.6826,-2.6884,-2.6976,-2.697,-2.7012,-2.7032,-2.7076,-2.7146,-2.7064,-2.7066,-2.7077,-2.7249,-2.7254,-2.7267,-2.715,-2.7152,-2.7154,-2.7244,0,-2.6404,-2.6525,-2.6553,-2.6657,-2.6718,-2.6732,-2.6792,-2.6843,-2.6875,-2.6932,-2.6967,-2.7032,-2.7019,-2.7044,-2.7089,-2.7128,-2.7181,-2.7122,-2.7205,-2.7207,-2.7188,-2.7283,-2.7289,-2.737,-2.7256,-2.7258,-2.7259,0,-2.6514,-2.6573,-2.6683,-2.6749,-2.6776,-2.6829,-2.6897,-2.6951,-2.7011,-2.7031,-2.7078,-2.7093,-2.7166,-2.7137,-2.7238,-2.7197,-2.7233,-2.7258,-2.7262,-2.727,-2.7236,-2.7294,-2.7397,-2.7409,-2.7278,-2.7277,-2.7276,0,-2.6559,-2.6666,-2.6746,-2.6776,-2.6855,-2.6892,-2.6927,-2.6985,-2.7026,-2.7086,-2.7113,-2.7181,-2.7218,-2.727,-2.7303,-2.728,-2.7402,-2.7376,-2.7421,-2.742,-2.7445,-2.7443,-2.7555,-2.7469,-2.7469,-2.7468,-2.7468,0,-2.6647,-2.6713,-2.6767,-2.6816,-2.6892,-2.6925,-2.6999,-2.7034,-2.7085,-2.7142,-2.7158,-2.7211,-2.7252,-2.7312,-2.7338,-2.7418,-2.7435,-2.7453,-2.7459,-2.7452,-2.7449,-2.7475,-2.747,-2.7472,-2.7471,-2.747,-2.747,0,-2.6709,-2.6747,-2.6835,-2.6903,-2.6922,-2.6975,-2.7033,-2.7082,-2.7114,-2.7186,-2.7205,-2.7256,-2.7326,-2.7365,-2.7454,-2.7472,-2.7561,-2.7564,-2.754,-2.7543,-2.7585,-2.7581,-2.7718,-2.7737,-2.7638,-2.7639,-2.764,0,-2.6762,-2.6814,-2.6887,-2.6926,-2.6962,-2.7024,-2.7067,-2.7101,-2.7145,-2.7217,-2.7258,-2.7329,-2.7388,-2.75,-2.7545,-2.7613,-2.7619,-2.7662,-2.7629,-2.7619,-2.7619,-2.7616,-2.7621,-2.7667,-2.7668,-2.7669,-2.7669,0,-2.6852,-2.6869,-2.6929,-2.6996,-2.7046,-2.7101,-2.7155,-2.7186,-2.723,-2.7279,-2.7351,-2.7397,-2.7487,-2.7558,-2.763,-2.7667,-2.7676,-2.768,-2.7694,-2.7686,-2.767,-2.7679,-2.7556,-2.7676,-2.7676,-2.7675,-2.7675,-2.7674,-2.6912,-2.6959,-2.7018,-2.7085,-2.7129,-2.718,-2.7229,-2.7268,-2.7328,-2.7404,-2.7422,-2.7498,-2.7557,-2.7655,-2.7694,-2.7754,-2.7746,-2.7766,-2.7771,-2.7776,-2.7777,-2.7661,-2.7768,-2.7767,-2.7767,-2.7767,-2.7767,0,-2.7003,-2.7042,-2.7103,-2.7178,-2.7231,-2.7235,-2.7296,-2.734,-2.7406,-2.7461,-2.7519,-2.7602,-2.7671,-2.7723,-2.7793,-2.7832,-2.7838,-2.785,-2.7847,-2.7855,-2.7781,-2.7761,-2.7844,-2.7844,-2.7844,-2.7844,-2.7843,-2.7843,-2.7057,-2.7136,-2.716,-2.7263,-2.7302,-2.7376,-2.741,-2.7457,-2.7501,-2.7593,-2.7651,-2.7684,-2.7737,-2.7812,-2.7876,-2.789,-2.7915,-2.7926,-2.794,-2.7869,-2.7861,-2.7853,-2.7835,-2.7931,-2.7931,-2.801,-2.8011,-2.8011]},{"header":{"parameterUnit":"m.s-1","parameterCategory":1,"la1":30.2991,"la2":30.254,"lo1":-89.0895,"lo2":-89.0444,"dy":0.0017,"dx":0.0017,"nx":28,"ny":28,"refTime":"2024-04-26T09:00:00:Z","depth":0,"parameterNumber":3,"parameterNumberName":"V-component_of_WINDS"},"data":[0,0,0,0,0,0,0,0,0,0,0,0,0,0,0,0,0,0,0,0,0,0,0,0,0,0,0,0,0,0,0,0,0,0,0,0,0,0,0,0,0,0,0,0,0,0,0,0,0,0,0,0,0,0,0,0,0,0,5.1904,5.1904,0,5.1953,5.1953,5.1954,5.188,5.1877,5.1875,5.1872,5.1918,5.1922,5.1925,0,0,0,0,0,0,0,0,0,0,0,0,0,5.1741,5.1744,5.1904,5.1904,5.1905,5.1953,5.1953,5.1954,5.188,5.1877,5.1874,5.1871,5.1917,5.1921,5.1925,0,0,0,0,0,0,0,0,0,0,0,0,0,5.1803,5.1745,5.1904,5.1874,5.1872,5.1953,5.1953,5.1954,5.1881,5.1877,5.1873,5.187,5.1915,5.1921,5.1926,5.2037,0,0,5.1943,5.1945,0,0,0,0,0,0,0,0,5.18,5.1809,5.1878,5.1876,5.1874,5.1907,5.1913,5.1982,5.1882,5.1878,5.1872,5.1868,5.1917,5.1922,5.194,5.2039,5.2041,5.1943,5.1946,5.1949,5.195,0,0,0,0,0,0,0,5.1795,5.1806,5.1923,5.1879,5.1877,5.1857,5.1861,5.1925,5.1918,5.1878,5.1872,5.1879,5.1915,5.1935,5.194,5.2041,5.1943,5.1948,5.1951,5.1953,5.2231,5.2235,0,0,0,0,0,0,5.1795,5.1803,5.1921,5.1924,5.1827,5.1863,5.1868,5.19,5.1917,5.1916,5.1883,5.1876,5.1927,5.1934,5.1941,5.207,5.1949,5.1954,5.1957,5.2227,5.2232,5.2236,0,0,0,0,0,0,5.1792,5.1807,5.1919,5.1863,5.1875,5.187,5.1906,5.1903,5.1922,5.1921,5.1919,5.1904,5.1924,5.1934,5.2013,5.207,5.1956,5.1961,5.2222,5.2228,5.2234,5.2329,0,0,0,0,0,0,5.1788,5.1806,5.1849,5.1864,5.1879,5.1992,5.191,5.1907,5.1932,5.1924,5.1941,5.194,5.1922,5.2006,5.2019,5.2076,5.1965,5.2217,5.2225,5.2232,5.232,5.2337,5.2352,0,0,0,0,0,5.1782,5.1873,5.1852,5.1866,5.1933,5.1996,5.2004,5.1983,5.1937,5.1979,5.1979,5.1939,5.2063,5.2014,5.2028,5.2088,5.2213,5.2222,5.2231,5.2313,5.2334,5.2352,0,0,0,0,0,0,5.1863,5.1875,5.1851,5.195,5.1973,5.1983,5.2036,5.2006,5.2041,5.2031,5.2003,5.2007,5.2092,5.2098,5.2044,5.2195,5.213,5.2142,5.2187,5.2207,5.2222,5.2218,5.197,0,0,0,0,0,5.1893,5.1945,5.1951,5.2038,5.2051,5.2042,5.2068,5.2051,5.2072,5.2081,5.2086,5.2107,5.215,5.2179,5.2219,5.2322,5.2323,5.237,5.2385,5.2398,5.2409,5.2461,5.2481,5.2267,5.2267,5.2266,0,0,5.1954,5.1967,5.2001,5.2055,5.207,5.2122,5.205,5.2109,5.2147,5.2089,5.2164,5.2169,5.219,5.2282,5.2322,5.2289,5.2469,5.241,5.2421,5.2424,5.2473,5.2493,5.2511,5.2273,5.2272,5.2271,0,0,5.2092,5.2109,5.2181,5.2199,5.2223,5.2217,5.2235,5.225,5.2251,5.2326,5.2284,5.2328,5.2404,5.242,5.2438,5.2583,5.2547,5.2597,5.2678,5.2729,5.2746,5.2761,5.281,5.2828,5.2607,5.2608,5.2608,0,5.2165,5.2243,5.2222,5.2284,5.2307,5.226,5.2332,5.2349,5.2385,5.2402,5.2366,5.2459,5.247,5.2563,5.2599,5.2616,5.2633,5.2593,5.2746,5.276,5.2774,5.282,5.2839,5.2613,5.2613,5.2612,5.2612,0,5.233,5.2385,5.2441,5.2478,5.2508,5.2575,5.2562,5.2595,5.2575,5.2571,5.2647,5.266,5.27,5.2721,5.2702,5.2812,5.279,5.2751,5.2684,5.28,5.2843,5.2861,5.2622,5.2619,5.2618,5.2616,0,0,5.2519,5.2544,5.2565,5.258,5.2604,5.2645,5.2709,5.275,5.2778,5.2805,5.2855,5.2921,5.2884,5.2905,5.2887,5.2933,5.3043,5.2887,5.2887,5.2913,5.3162,5.319,5.3211,5.3021,5.3024,5.3027,5.3159,0,5.2654,5.2766,5.2749,5.2855,5.2905,5.286,5.2915,5.2935,5.2934,5.2974,5.2971,5.3017,5.2967,5.2979,5.3022,5.3021,5.3092,5.3011,5.3065,5.3067,5.3059,5.3234,5.3264,5.3388,5.3176,5.3179,5.3181,0,5.2827,5.2861,5.2974,5.2989,5.3009,5.3059,5.3094,5.3134,5.3155,5.315,5.3174,5.3148,5.3209,5.3144,5.3227,5.3172,5.3193,5.3196,5.32,5.3202,5.3129,5.3238,5.3427,5.3445,5.3207,5.3205,5.3203,0,5.2951,5.3025,5.3101,5.3116,5.3136,5.3172,5.3182,5.3199,5.3224,5.3255,5.3271,5.3308,5.3328,5.3357,5.334,5.3295,5.3425,5.3359,5.3421,5.3422,5.3448,5.3447,5.3641,5.3467,5.3467,5.3466,5.3466,0,5.3103,5.3172,5.3156,5.3203,5.3279,5.3258,5.3333,5.3337,5.3353,5.3398,5.3362,5.3405,5.3382,5.3422,5.341,5.3479,5.3489,5.3485,5.348,5.3487,5.3487,5.3499,5.3489,5.3471,5.347,5.3469,5.3468,0,5.3253,5.3245,5.3325,5.3338,5.3343,5.3398,5.3408,5.345,5.3447,5.3504,5.3516,5.351,5.3555,5.3542,5.3592,5.3583,5.367,5.3656,5.3663,5.3659,5.3721,5.3714,5.3928,5.3954,5.3765,5.3766,5.3768,0,5.3349,5.3401,5.342,5.3449,5.3461,5.3508,5.3534,5.3514,5.3543,5.357,5.3609,5.3652,5.3684,5.3759,5.3758,5.3795,5.3779,5.3852,5.3785,5.3789,5.3777,5.3774,5.3778,5.3864,5.3867,5.3868,5.387,0,5.352,5.3513,5.3553,5.3591,5.3624,5.3653,5.3678,5.3703,5.3685,5.3718,5.3765,5.3791,5.3842,5.3884,5.3918,5.3925,5.3894,5.3891,5.3907,5.3913,5.3915,5.3912,5.3697,5.3886,5.3884,5.3883,5.3882,5.3882,5.3644,5.3688,5.3708,5.3753,5.377,5.3795,5.3835,5.3836,5.3876,5.3916,5.3902,5.3955,5.3973,5.4015,5.4028,5.4068,5.404,5.4064,5.4069,5.4075,5.4081,5.3911,5.4074,5.4074,5.4073,5.4073,5.4073,0,5.381,5.3821,5.3863,5.39,5.3935,5.3905,5.3931,5.3961,5.4009,5.4029,5.4063,5.4116,5.4156,5.4159,5.4196,5.4228,5.4214,5.4238,5.4234,5.4236,5.4105,5.4087,5.4248,5.4248,5.4248,5.4248,5.4248,5.4248,5.3901,5.3974,5.397,5.4049,5.4059,5.4112,5.4129,5.4151,5.4166,5.4228,5.4262,5.4264,5.4276,5.4314,5.4349,5.4348,5.4363,5.4392,5.4385,5.4263,5.4245,5.4229,5.4211,5.4396,5.4396,5.4512,5.4513,5.4514]}]]